Location: Brunembert
(50.7122°N, 1.8935°E)
Time: 07:01:57
(UTC+00:00)

Cosmos 1500 Rocket - Visible Passes

Search period start: 29 July 2021 00:00
Search period end: 08 August 2021 00:00
Orbit: 604 x 630 km, 82.5° (Epoch: 28 July)

Date Brightness Start Highest point End Pass type
(mag) Time Alt. Az. Time Alt. Az. Time Alt. Az.
29 Jul 6.2 00:21:47 10° W 00:23:36 12° WNW 00:25:25 10° NW visible
29 Jul 5.1 21:22:34 16° ESE 21:24:19 20° E 21:27:35 10° NE visible
29 Jul 4.3 22:59:40 27° SW 23:01:48 49° WNW 23:06:08 10° N visible
30 Jul 4.4 21:39:02 24° SE 21:40:52 33° E 21:44:52 10° NNE visible
30 Jul 5.1 23:16:08 17° WSW 23:18:43 30° WNW 23:22:40 10° N visible
31 Jul 3.7 21:55:28 29° SSE 21:57:30 57° E 22:01:52 10° NNE visible
31 Jul 5.8 23:32:34 10° WSW 23:35:43 19° WNW 23:38:57 10° NNW visible
01 Aug 5.6 20:35:17 10° ESE 20:37:06 12° E 20:38:55 10° ENE visible
01 Aug 3.5 22:11:54 28° SSW 22:14:13 85° W 22:18:42 10° N visible
01 Aug 6.2 23:50:58 10° W 23:52:50 12° WNW 23:54:42 10° NW visible
02 Aug 5.1 20:51:12 14° SE 20:53:33 20° E 20:56:50 10° NE visible
02 Aug 4.3 22:28:17 21° SW 22:31:02 50° WNW 22:35:24 10° N visible
03 Aug 4.4 21:07:34 19° SE 21:10:05 33° E 21:14:06 10° NNE visible
03 Aug 5.2 22:44:39 13° SW 22:47:57 30° WNW 22:51:55 10° N visible
04 Aug 3.7 21:23:54 21° SSE 21:26:44 56° E 21:31:07 10° NNE visible
04 Aug 5.9 23:01:44 10° WSW 23:04:57 19° WNW 23:08:12 10° NNW visible
05 Aug 5.6 20:04:31 10° ESE 20:06:21 12° E 20:08:10 10° NE visible
05 Aug 3.6 21:40:12 18° SSW 21:43:27 85° WNW 21:47:57 10° N visible
05 Aug 6.3 23:20:09 10° W 23:22:04 12° WNW 23:23:58 10° NW visible
06 Aug 5.0 20:19:32 10° SE 20:22:48 20° E 20:26:05 10° NE visible
06 Aug 4.4 21:56:27 13° SSW 22:00:16 50° WNW 22:04:38 10° N visible
07 Aug 4.4 20:35:35 11° SSE 20:39:20 33° E 20:43:21 10° NNE visible
07 Aug 5.3 22:13:14 10° SW 22:17:10 30° WNW 22:21:09 10° N visible
